Location: Lafig�re
(44.4503°N, 4.0357°E)
Time: 15:44:19
(UTC+00:00)

Vanguard 2 Rocket - Pass Details

Date: 28 January 2021
Orbit: 554 x 3325 km, 32.9° (Epoch: 06 March)

Event Time Altitude Azimuth Distance (km) Brightness Sun altitude
Rises 11:30:13 0° 210° (SSW) 7,303 12.3 27.2°
Reaches altitude 10° 11:36:28 10° 200° (SSW) 6,210 12.4 27.3°
Maximum altitude 11:50:47 27° 152° (SSE) 4,297 11.8 27.5°
Drops below altitude 10° 12:01:38 10° 101° (ESE) 4,683 10.7 27.5°
Sets 12:05:26 0° 90° (E) 5,293 10.8 27.5°
